Location: Waco, TX
(31.5480°N, 97.1670°W)
Time: 05:57:54
(UTC-05:00)

ISS - Pass Details

Date: 28 September 2022
Orbit: 414 x 417 km, 51.6° (Epoch: 01 October)

Event Time Altitude Azimuth Distance (km) Brightness Sun altitude
Rises 13:59:06 0° 188° (S) 2,332 0.6 54.9°
Reaches altitude 10° 14:01:49 10° 163° (SSE) 1,476 -0.4 54.7°
Maximum altitude 14:03:48 15° 126° (SE) 1,213 -1.1 54.6°
Drops below altitude 10° 14:05:47 10° 89° (E) 1,483 -1.0 54.4°
Sets 14:08:31 0° 65° (ENE) 2,350 -0.2 54.2°
